x

9410840 - Santa Monica Pier (icac1) Weather Station

2:54 - Sun 28th Dec 2014 All times are PST. -8 hours from GMT.

  • Wind
    7mph, 10mph gusts
  • Sea Temp 61°f
  • Aire Temp 47°f
  • Sea Pressure 1025.6mb
  • 9410840 - Santa Monica Pier
  • 9410840 - Santa Monica Pier

More Historic Weather Station data

Upgrade to MSW Pro to gain access to the past 30 days of data for over 8000 Wavebouys and Weather Stations around the globe.

Join Pro

Comparision Forecast

View Surf forecast
   
dom 12/28 2:54 7 10 mph 1025.6mb 61f 47f
2:42 9 10 mph 1025.7mb 61f 48f
2:36 8 9 mph 1025.6mb 61f 47f
2:30 8 9 mph 1025.6mb 61f 48f
2:24 7 9 mph 1025.7mb 61f 48f
2:18 6 8 mph 1025.7mb 61f 49f
2:12 7 8 mph 1025.7mb 61f 48f
2:06 5 6 mph 1025.7mb 61f 48f
2:00 5 6 mph 1025.7mb 61f 49f
1:54 5 7 mph 1025.8mb 61f 49f
1:48 5 6 mph 1025.9mb 61f 50f
1:42 5 6 mph 1025.9mb 61f 50f
1:36 3 5 mph 1026mb 61f 50f
1:30 5 6 mph 1026mb 61f 50f
1:24 6 7 mph 1025.9mb 61f 50f
1:18 5 6 mph 1026mb 61f 50f
1:12 5 7 mph 1026mb 61f 51f
1:06 7
mph
1026.1mb 61f 50f
1:00 3 6 mph 1026.1mb 61f 50f
12:54 5 7 mph 1026.1mb 61f 51f
12:48 6 7 mph 1026mb 61f 51f
12:42 7
mph
1026mb 61f 51f
12:36 6 7 mph 1026.1mb 61f 51f
12:30 6 7 mph 1026.1mb 61f 51f
12:24 5 6 mph 1026.2mb 61f 51f
12:18 5 6 mph 1026.2mb 61f 52f
12:12 5 6 mph 1026.3mb 61f 52f
12:06 6
mph
1026.4mb 61f 51f
12:00 6 7 mph 1026.4mb 61f 51f
sáb 12/27 11:54 6 7 mph 1026.3mb 61f 52f
11:48 5 6 mph 1026.4mb 61f 52f
11:42 5 7 mph 1026.5mb 61f 52f
11:36 7 8 mph 1026.5mb 61f 52f
11:30 6 9 mph 1026.5mb 61f 52f
11:24 5 6 mph 1026.5mb 61f 52f
11:18 6 7 mph 1026.5mb 61f 52f
11:12 3 7 mph 1026.5mb 61f 52f
11:06 6 8 mph 1026.5mb 61f 52f
11:00 6 8 mph 1026.6mb 61f 52f
10:54 5 7 mph 1026.7mb 61f 52f
10:48 7 8 mph 1026.8mb 61f 52f
10:42 5 8 mph 1026.8mb 61f 52f
10:36 6 8 mph 1026.9mb 61f 52f
10:30 6 8 mph 1027mb 61f 52f
10:24 7 8 mph 1027mb 61f 52f
10:18 6 9 mph 1027mb 61f 52f
10:12 7 8 mph 1027.1mb 61f 53f
10:06 7 9 mph 1027.1mb 61f 53f
10:00 7 8 mph 1027.2mb 61f 53f
9:54 6 9 mph 1027.2mb 61f 53f
9:48 6 10 mph 1027.2mb 61f 53f
9:42 6 9 mph 1027.2mb 61f 54f
9:36 5 8 mph 1027.3mb 61f 54f
9:30 5 8 mph 1027.2mb 61f 54f
9:24 6 9 mph 1027.3mb 61f 54f
9:18 8 10 mph 1027.3mb 61f 54f
9:12 8 10 mph 1027.3mb 61f 54f
9:06 8 11 mph 1027.3mb 61f 54f
9:00 9 14 mph 1027.2mb 61f 54f
8:54 8 13 mph 1027.2mb 61f 54f
8:48  -  mph - - 54f
8:42  -  mph - - 55f
8:36  -  mph - - 55f
8:30 9 11 mph 1027mb 61f 55f
8:24 9 11 mph 1027mb 61f 55f
8:18 8 13 mph 1027mb 61f 55f
8:12 10 13 mph 1026.9mb 61f 56f
8:06 9 11 mph 1026.9mb 61f 56f
8:00 8 11 mph 1027mb 61f 56f
7:54 9 11 mph 1027.1mb 61f 56f
7:48 7 9 mph 1027.1mb 61f 57f
7:42 6 8 mph 1027mb 61f 56f
7:36 5 6 mph 1026.9mb 61f 56f
7:30 2 5 mph 1027mb 61f 56f
7:24 1 5 mph 1027mb 61f 56f
7:18 2 5 mph 1027mb 61f 56f
7:12 5 6 mph 1027.1mb 61f 57f
7:06 5 6 mph 1026.9mb 61f 57f
6:54 5 7 mph 1026.9mb 61f 58f
6:48 6 7 mph 1027mb 61f 56f
6:42 6 8 mph 1027mb 61f 56f
6:36 6 7 mph 1027mb 61f 56f
6:30 6 7 mph 1027mb 61f 57f
6:24 6 7 mph 1027mb 61f 57f
6:18 6 7 mph 1026.9mb 61f 57f
6:12 5 7 mph 1026.9mb 61f 57f
6:06 6 7 mph 1026.7mb 61f 57f
6:00 6 9 mph 1026.7mb 61f 58f
5:54 7 11 mph 1026.6mb 61f 58f
5:48 10 13 mph 1026.6mb 61f 58f
5:42 11 13 mph 1026.7mb 61f 58f
5:36 10 14 mph 1026.5mb 61f 58f
5:30 10 15 mph 1026.6mb 61f 58f
5:24 10 11 mph 1026.5mb 61f 58f
5:18 10 11 mph 1026.4mb 61f 58f
5:12 10 11 mph 1026.3mb 61f 59f
5:00 10 11 mph 1026.2mb 61f 58f
4:54 10 11 mph 1026.1mb 61f 59f
4:48 8 11 mph 1026mb 61f 59f
4:42 8 10 mph 1026.1mb 61f 59f
4:36 9 10 mph 1026mb 61f 59f
4:30 9 11 mph 1026.1mb 61f 59f
4:24 8 11 mph 1026.1mb 61f 59f
4:18 9 11 mph 1026.1mb 61f 59f
4:12 9 10 mph 1026mb 61f 59f
4:06 9 13 mph 1026.1mb 61f 59f
4:00 11 13 mph 1026.2mb 61f 59f
3:54 11 13 mph 1026.2mb 61f 59f
3:48 11 13 mph 1026.1mb 61f 59f
3:42 10 11 mph 1026.1mb 61f 60f
3:36 10 13 mph 1025.9mb 61f 60f
3:30 10 13 mph 1025.9mb 61f 59f
3:24 10 13 mph 1025.9mb 61f 59f
3:18 11 14 mph 1026mb 61f 59f
3:12 11 13 mph 1025.9mb 61f 59f
3:06 11 13 mph 1026mb 61f 59f
3:00 11 13 mph 1025.9mb 61f 59f
2:54 10 11 mph 1025.6mb 61f 60f
2:48 10 11 mph 1025.6mb 61f 59f
2:42 10 11 mph 1025.6mb 61f 60f
2:36 10 13 mph 1025.6mb 61f 59f
2:30 10 11 mph 1025.6mb 61f 59f
2:24 11 13 mph 1025.6mb 61f 59f
2:18 11 13 mph 1025.5mb 61f 59f
2:06 11 14 mph 1025.6mb 61f 59f
2:00 11 13 mph 1025.7mb 61f 59f
1:54 13
mph
1025.7mb 61f 59f
1:48 11 14 mph 1025.7mb 61f 59f
1:42 13 15 mph 1025.6mb 61f 59f
1:36 13 15 mph 1025.6mb 61f 59f
1:30 14 16 mph 1025.6mb 61f 59f
1:24 14
mph
1025.7mb 61f 58f
1:18 14 15 mph 1025.6mb 61f 58f
1:12 13 14 mph 1025.6mb 61f 59f
1:06 14 16 mph 1025.6mb 61f 59f
1:00 13 16 mph 1025.6mb 61f 58f
12:54 13 14 mph 1025.7mb 61f 58f
12:48 13 14 mph 1025.8mb 61f 58f
12:42 13 15 mph 1025.9mb 61f 58f
12:36 11 13 mph 1025.9mb 61f 58f
12:30 11 14 mph 1025.9mb 61f 58f
12:24 11 13 mph 1026.1mb 61f 58f
12:18 13 14 mph 1026.3mb 61f 58f
12:12 11 13 mph 1026.5mb 61f 58f
12:06 11 13 mph 1026.6mb 61f 57f
12:00 10 13 mph 1026.6mb 61f 57f
11:54 11
mph
1026.8mb 61f 57f
11:48 10 11 mph 1026.8mb 61f 57f
11:42 9 10 mph 1027mb 61f 57f
11:36 8 10 mph 1027.1mb 61f 57f
11:30 8 9 mph 1027.2mb 61f 57f
11:24 8 9 mph 1027.3mb 61f 57f
11:18 6 8 mph 1027.3mb 61f 57f
11:12 6 7 mph 1027.4mb 61f 57f
11:06 6 8 mph 1027.4mb 61f 57f
11:00 7 8 mph 1027.5mb 61f 57f
10:48 6
mph
1027.6mb 61f 56f
10:42 5 6 mph 1027.7mb 61f 56f
10:36 5 6 mph 1027.7mb 61f 56f
10:30 5 7 mph 1027.6mb 61f 56f
10:24 5 6 mph 1027.7mb 61f 56f
10:18 6 7 mph 1027.6mb 61f 56f
10:12 6
mph
1027.7mb 61f 56f
10:06 6
mph
1027.9mb 61f 57f
10:00 6
mph
1028mb 61f 57f
9:54 5 6 mph 1027.9mb 61f 57f
9:48 5 7 mph 1027.9mb 61f 56f
9:42 6 7 mph 1027.9mb 61f 56f
9:36 3 6 mph 1027.9mb 61f 55f
9:30 6 7 mph 1027.9mb 61f 55f
9:24 6 7 mph 1027.7mb 61f 55f
9:18 6 9 mph 1027.5mb 60f 54f
9:12 6 8 mph 1027.2mb 60f 54f
9:06 8 9 mph 1027.1mb 60f 54f
9:00 6 8 mph 1027mb 60f 54f
8:48 5 8 mph 1026.9mb 60f 53f
8:42 7 9 mph 1026.8mb 60f 53f
8:36 7 8 mph 1026.7mb 60f 52f
8:30 6 8 mph 1026.7mb 60f 52f
8:24 7 8 mph 1026.7mb 60f 52f
8:18 7 10 mph 1026.5mb 60f 52f
8:12 6 8 mph 1026.4mb 60f 52f
8:06 6 8 mph 1026.4mb 60f 52f
8:00 6 8 mph 1026.3mb 60f 52f
7:54 7 9 mph 1026.2mb 60f 52f
7:48 8 10 mph 1026.1mb 60f 52f
7:42 6 8 mph 1026.1mb 60f 51f
7:36 7 9 mph 1026mb 60f 51f
7:30 6 8 mph 1026mb 60f 51f
7:24 7 10 mph 1025.8mb 60f 50f
7:18 6 9 mph 1025.7mb 60f 50f
7:12 6 8 mph 1025.6mb 60f 50f
7:06 5 9 mph 1025.5mb 60f 50f
7:00 6 7 mph 1025.4mb 60f 50f
6:54 6
mph
1025.3mb 60f 50f
6:48 5 7 mph 1025.3mb 60f 50f
6:42 5 6 mph 1025.3mb 60f 49f
6:36 5 6 mph 1025.3mb 61f 48f
6:30 5 8 mph 1025.3mb 61f 50f
6:24 6 7 mph 1025.2mb 61f 50f
6:18 5 6 mph 1025.1mb 61f 49f
6:06 6 8 mph 1025.1mb 61f 50f
6:00 6 8 mph 1025.1mb 61f 49f
5:54 6 7 mph 1025.1mb 61f 47f
5:48 6 9 mph 1025mb 61f 48f
5:42 8 9 mph 1024.9mb 61f 50f
5:36 3 8 mph 1024.9mb 61f 51f
5:30 5 8 mph 1024.8mb 61f 52f
5:24 2 6 mph 1024.8mb 60f 51f
5:18 3 5 mph 1024.8mb 60f 51f
5:12 1 3 mph 1024.8mb 60f 51f
5:06 1 5 mph 1024.8mb 60f 51f
5:00 3 5 mph 1024.7mb 60f 51f
4:54 3 5 mph 1024.7mb 60f 52f
4:48 3 6 mph 1024.6mb 60f 52f
4:42 2 9 mph 1024.5mb 60f 52f
4:36 3 8 mph 1024.5mb 60f 52f
4:30 3 6 mph 1024.5mb 60f 52f
4:24 3 7 mph 1024.4mb 60f 52f
4:18 3 6 mph 1024.4mb 60f 51f
4:12 1 3 mph 1024.3mb 60f 51f
4:06 5 7 mph 1024.2mb 60f 52f
4:00 3 6 mph 1024.2mb 60f 52f
3:54 2 6 mph 1024.2mb 60f 51f
3:48 2 3 mph 1024.1mb 60f 51f
3:42 2 6 mph 1024mb 60f 51f
3:36 3 5 mph 1023.9mb 60f 51f
3:30 3 6 mph 1024mb 60f 51f
3:24 5 7 mph 1024.1mb 60f 51f
3:18 5 6 mph 1024.1mb 60f 51f
3:12 5 6 mph 1024.2mb 60f 51f
3:06 3 6 mph 1024.2mb 60f 51f
3:00 3 6 mph 1024.2mb 60f 52f
2:54 2 3 mph 1024.3mb 60f 51f
2:48  -  2 mph 1024.4mb 61f 51f
2:42 2 5 mph 1024.3mb 61f 52f
2:36 2 5 mph 1024.2mb 61f 51f
2:30 2 3 mph 1024.1mb 61f 51f
2:24 1 5 mph 1024mb 60f 52f
2:18 2 5 mph 1023.9mb 60f 51f
2:12 5 6 mph 1023.8mb 60f 52f
2:06 6
mph
1023.7mb 60f 51f
2:00 3 5 mph 1023.6mb 60f 51f
1:54 3 8 mph 1023.7mb 60f 51f
1:48 7 9 mph 1023.6mb 60f 51f
1:42 7 8 mph 1023.7mb 61f 50f
1:36 6 10 mph 1023.7mb 61f 52f
1:30 7 8 mph 1023.7mb 61f 51f
1:24 6 7 mph 1023.6mb 61f 51f
1:18 6 7 mph 1023.6mb 61f 51f
1:12 7 9 mph 1023.5mb 61f 51f
1:06 7 9 mph 1023.3mb 61f 52f
1:00 9 10 mph 1023.3mb 61f 51f
12:54 3 7 mph 1023.3mb 61f 52f
12:48 6 7 mph 1023.3mb 61f 52f
12:42 2 7 mph 1023.2mb 61f 53f
12:36 6 11 mph 1023.2mb 61f 54f
12:30 8 10 mph 1023.2mb 61f 54f
12:24 6 10 mph 1023.2mb 61f 54f
12:18 7 9 mph 1023.2mb 61f 55f
12:12 8 10 mph 1023.2mb 61f 54f
12:06 9 13 mph 1023.2mb 61f 54f
12:00 9 13 mph 1023.3mb 61f 55f
vie 12/26 11:54 10 13 mph 1023.3mb 61f 55f
11:48 9 11 mph 1023.3mb 61f 55f
11:42 7 10 mph 1023.3mb 61f 55f
11:36 7 9 mph 1023.3mb 61f 55f
11:30 8 11 mph 1023.3mb 61f 55f
11:24 8 10 mph 1023.4mb 61f 54f
11:18 7 10 mph 1023.3mb 61f 54f
11:12 9 10 mph 1023.4mb 61f 54f
11:06 7 10 mph 1023.3mb 61f 54f
11:00 9 10 mph 1023.2mb 61f 54f
10:54 7 9 mph 1023.1mb 61f 54f
10:48 7 9 mph 1023.2mb 61f 54f
10:42 6 8 mph 1023.2mb 61f 53f
10:36 8 10 mph 1023.2mb 61f 54f
10:30 8 9 mph 1023mb 61f 54f
10:24 7 9 mph 1023mb 61f 53f
10:18 8 9 mph 1022.9mb 61f 54f
10:12 9 11 mph 1022.9mb 61f 54f
10:06 9 11 mph 1022.8mb 61f 54f
10:00 11 14 mph 1022.7mb 61f 54f
9:54 10 11 mph 1022.7mb 61f 53f
9:48 9 10 mph 1022.6mb 61f 54f
9:42 8 9 mph 1022.6mb 61f 54f
9:36 7 9 mph 1022.4mb 61f 54f
9:30 6 11 mph 1022.2mb 61f 55f
9:24 10 13 mph 1022.1mb 61f 55f
9:18 11 13 mph 1022.1mb 61f 55f
9:12 8 14 mph 1022.1mb 61f 55f
9:06 9 14 mph 1021.9mb 61f 55f
9:00 8 13 mph 1021.8mb 61f 55f
8:54 10 16 mph 1021.6mb 61f 56f
8:48 11 21 mph 1021.4mb 61f 56f
8:42 14 22 mph 1021.4mb 61f 56f
8:36 14 21 mph 1021.3mb 61f 56f
8:30 17 22 mph 1021.2mb 61f 56f
8:24 17 21 mph 1021.1mb 61f 56f
8:18 16 20 mph 1021mb 61f 56f
8:12 17 20 mph 1021mb 61f 56f
8:06 17 22 mph 1021mb 61f 56f
8:00 16 21 mph 1020.9mb 61f 56f
7:54 16 20 mph 1020.9mb 61f 56f
7:48 11 15 mph 1021mb 61f 56f
7:42 11 17 mph 1020.8mb 61f 56f
7:36 11 18 mph 1020.8mb 61f 56f
7:30 14 17 mph 1020.7mb 61f 57f
7:24 11 17 mph 1020.7mb 61f 56f
7:18 13 22 mph 1020.6mb 61f 57f
7:12 14 22 mph 1020.5mb 61f 57f
7:06 14 21 mph 1020.4mb 61f 57f
7:00 14 20 mph 1020.4mb 61f 57f
6:54 13 22 mph 1020.3mb 61f 57f
6:48 14 20 mph 1020.2mb 61f 58f
6:42 7 13 mph 1020.2mb 61f 57f
6:36 2 5 mph 1020.2mb 61f 57f
6:30 3 7 mph 1020.1mb 61f 57f
6:24 5 7 mph 1020.1mb 61f 58f
6:18 3 5 mph 1020mb 61f 58f
6:12 3 5 mph 1020mb 61f 58f
6:06 1 3 mph 1019.9mb 61f 58f
6:00 3 6 mph 1019.9mb 61f 58f
5:54 2 9 mph 1019.8mb 61f 59f
5:48 5 7 mph - 61f 59f
5:42 3 8 mph - 61f 59f
5:36 2 5 mph - 61f 59f
5:30 2 6 mph 1019.3mb 61f 60f
5:24 2 9 mph 1019.2mb 61f 60f
5:18 6 10 mph 1019.2mb 61f 60f
5:12 8 11 mph 1019.1mb 61f 60f
5:06 9 11 mph 1019mb 62f 61f
5:00 7 10 mph 1019mb 62f 61f
4:54 7 9 mph 1019mb 62f 61f
4:48 9 10 mph 1019mb 62f 61f
4:42 10 20 mph 1018.9mb 62f 60f
4:36 7 14 mph 1018.8mb 62f 61f
4:24 15 17 mph 1018.6mb 62f 60f
4:18 9 14 mph 1018.6mb 62f 60f
4:06 13 15 mph 1018.5mb 62f 60f
4:00 11 14 mph 1018.5mb 62f 60f
3:54 13 14 mph 1018.4mb 62f 60f
3:48 11 13 mph 1018.4mb 62f 60f
3:42 11 14 mph 1018.4mb 62f 60f
3:36 11 13 mph 1018.4mb 62f 60f
3:30 13 14 mph 1018.4mb 62f 60f
3:24 11 15 mph 1018.3mb 62f 60f
3:18 11 13 mph 1018.3mb 62f 60f
3:12 10
mph
1018.3mb 62f 60f
3:06 10 11 mph 1018.2mb 62f 60f
3:00 10 11 mph 1018.2mb 61f 60f
2:54 10 11 mph 1018.1mb 61f 60f
2:48 9 10 mph 1018.1mb 61f 60f
2:42 8 10 mph 1018.1mb 61f 60f
2:36 9 10 mph 1018.1mb 61f 60f
2:30 9 10 mph 1018.1mb 61f 60f
2:24 9
mph
1018mb 61f 60f
2:18 9 10 mph 1018mb 61f 59f
2:12 9
mph
1017.9mb 61f 60f
2:06 9 10 mph 1017.9mb 61f 59f
2:00 9 10 mph 1017.8mb 61f 59f
1:54 9 10 mph 1017.8mb 61f 59f
1:48 8 9 mph 1017.9mb 61f 59f
1:42 8 9 mph 1017.8mb 61f 59f
1:36 9 10 mph 1017.8mb 61f 59f
1:30 9 10 mph 1017.8mb 61f 59f
1:24 9 10 mph 1017.8mb 61f 59f
1:18 8 10 mph 1017.8mb 61f 59f
1:12 8 9 mph 1017.8mb 61f 59f
1:00 8 10 mph 1017.8mb 61f 59f
12:54 8 10 mph 1017.9mb 61f 59f
12:48  -  mph 1017.9mb 61f 58f
12:42  -  mph 1018mb 61f 58f
12:36  -  mph 1018mb 61f 58f
12:30 8 10 mph 1018mb 61f 58f
12:24 9 10 mph 1018.1mb 61f 58f
12:18 10 11 mph 1018.2mb 61f 58f
12:06 8 10 mph 1018.5mb 61f 58f
12:00 9 10 mph 1018.5mb 61f 58f
11:54 7 9 mph 1018.6mb 61f 58f
11:48 7 9 mph 1018.7mb 61f 58f
11:42 8 10 mph 1018.8mb 61f 58f
11:36 8 9 mph 1018.8mb 61f 58f
11:30 8 10 mph 1018.9mb 61f 58f
11:24 9 11 mph 1019mb 61f 57f
11:18 9 11 mph 1019.2mb 61f 57f
11:12 9 11 mph 1019.2mb 61f 57f
11:06 9 11 mph 1019.3mb 61f 57f
11:00 8 9 mph 1019.4mb 61f 57f
10:54 8 10 mph 1019.3mb 61f 57f
10:48 8 10 mph 1019.4mb 60f 57f
10:42 8 9 mph 1019.5mb 60f 57f
10:36 9 10 mph 1019.5mb 60f 56f
10:30 9
mph
1019.6mb 60f 56f
10:24 8 9 mph 1019.6mb 60f 56f
10:18 8 9 mph 1019.6mb 60f 57f
10:06 5 7 mph 1019.6mb 60f 57f
10:00 6 7 mph 1019.6mb 60f 57f
9:54 6 7 mph 1019.6mb 60f 57f
9:48 5 6 mph 1019.6mb 60f 58f
9:42 5 7 mph 1019.6mb 60f 58f
9:36 3 7 mph 1019.6mb 60f 58f
9:30 5 7 mph 1019.6mb 60f 58f
9:24 3 10 mph 1019.5mb 60f 57f
9:18 7 9 mph 1019.3mb 60f 57f
9:12 6 9 mph 1019.2mb 60f 57f
9:06 7 10 mph 1019.1mb 60f 56f
9:00 9 13 mph 1018.9mb 60f 56f
8:54 8 11 mph 1018.8mb 60f 56f
8:48 8 15 mph 1018.7mb 60f 56f
8:42 13 16 mph 1018.7mb 60f 55f
8:36 8 13 mph 1018.6mb 60f 55f
8:30 10 13 mph 1018.5mb 60f 54f
8:24 7 11 mph 1018.5mb 60f 54f
8:18 8 10 mph 1018.4mb 60f 53f
8:12 7 10 mph 1018.4mb 60f 53f
8:06 6 13 mph 1018.4mb 60f 53f
8:00 9 13 mph 1018.2mb 60f 53f
7:54 9 14 mph 1018mb 60f 53f
7:48 13 15 mph 1017.9mb 60f 53f
7:42 8 11 mph 1017.9mb 60f 53f
7:36 8 17 mph 1017.8mb 60f 54f
7:30 11 22 mph 1017.5mb 60f 54f
7:24 14 22 mph 1017.4mb 60f 54f
7:18 20 24 mph 1017.3mb 60f 54f
7:12 20 26 mph 1017.2mb 61f 54f
7:06 15 24 mph 1017.1mb 61f 53f
7:00 18 24 mph 1017mb 61f 53f
6:54 18 24 mph 1016.8mb 61f 53f
6:48 20 28 mph 1016.8mb 61f 53f
6:42 20 29 mph 1016.5mb 61f 53f
6:36 17 25 mph 1016.5mb 61f 53f
6:30 20 28 mph 1016.4mb 61f 54f
6:24 21 28 mph 1016.4mb 61f 54f
6:18 18 26 mph 1016.2mb 61f 54f
6:12 21 31 mph 1016.1mb 61f 54f
6:06 21 29 mph 1016mb 61f 54f
6:00 18 26 mph 1016mb 60f 54f
5:54 21 29 mph 1016mb 60f 54f
5:48 18 28 mph 1016.1mb 61f 54f
5:42 21 24 mph 1015.9mb 61f 54f
5:36 17 24 mph 1015.9mb 61f 53f
5:30 16 26 mph 1015.9mb 61f 53f
5:24 22 25 mph 1015.8mb 61f 53f
5:18 18 29 mph 1015.7mb 61f 53f
5:12 23 29 mph 1015.5mb 61f 54f
5:06 18 25 mph 1015.5mb 61f 54f
4:48 16 21 mph 1015.3mb 61f 54f
4:42 14 20 mph 1015.3mb 61f 54f
4:36 10 17 mph 1015.3mb 61f 54f
4:30 10 16 mph 1015.2mb 61f 54f
4:24 9 16 mph 1015.1mb 61f 54f
4:18 13 21 mph 1014.9mb 61f 54f
4:12 8 18 mph 1014.9mb 61f 54f
4:06 14 17 mph 1014.8mb 61f 54f
4:00 9 14 mph 1014.8mb 61f 54f
3:54 7 15 mph 1014.8mb 61f 54f
3:48 11 16 mph 1014.7mb 61f 54f
3:42 8 14 mph 1014.6mb 61f 53f
3:36 10 16 mph 1014.5mb 61f 53f
3:30 13 17 mph 1014.4mb 61f 54f
3:24 14 20 mph 1014.4mb 61f 54f
3:18 11 17 mph 1014.4mb 61f 54f
3:12 10 18 mph 1014.4mb 61f 54f
3:06 11 23 mph 1014.4mb 61f 54f
3:00 20 24 mph 1014.3mb 61f 54f
2:54 18 24 mph 1014.3mb 61f 54f
2:48 18 24 mph 1014.2mb 61f 54f
2:42 15 18 mph 1014.2mb 61f 54f
2:36 13 20 mph 1014.4mb 61f 54f
2:30 13 20 mph 1014.3mb 61f 54f
2:24 10 20 mph 1014.3mb 61f 54f
2:18 10 20 mph 1014.2mb 61f 54f
2:12 16 26 mph 1014.2mb 61f 54f
2:06 17 22 mph 1014.1mb 61f 54f
2:00 17 28 mph 1014mb 61f 54f
1:54 20 25 mph 1014mb 61f 54f
1:48 20 25 mph 1014mb 61f 54f
1:42 21 28 mph 1014mb 61f 54f
1:36 20 28 mph 1014.1mb 61f 54f
1:30 21 29 mph 1014mb 61f 54f
1:24 23 28 mph 1014mb 61f 54f
1:18 21 29 mph 1014mb 61f 54f
1:12 21 29 mph 1013.9mb 61f 54f
1:06 22 29 mph 1013.9mb 61f 54f
1:00 21 29 mph 1013.9mb 61f 53f
12:54 24 29 mph 1013.9mb 61f 54f
12:48 21 29 mph 1014mb 61f 54f
12:42 21 31 mph 1014.1mb 61f 54f
12:36 22 26 mph 1014.1mb 61f 54f
12:30 20 25 mph 1014.1mb 61f 54f
12:24 18 25 mph 1014.1mb 61f 54f
12:18 16 23 mph 1014mb 61f 54f
12:12 23 31 mph 1013.9mb 61f 54f
12:06 20 26 mph 1014mb 61f 54f
12:00 21 28 mph 1014mb 61f 54f
jue 12/25 11:54 20 24 mph 1014mb 61f 54f
11:48 17 22 mph 1014.1mb 61f 54f
11:42 21 25 mph 1014.1mb 61f 54f
11:36 24 28 mph 1013.9mb 61f 54f
11:30 20 26 mph 1013.9mb 62f 54f
11:24 18 33 mph 1013.9mb 62f 55f
11:18 18 28 mph 1013.9mb 61f 55f
11:12 21 30 mph 1013.8mb 62f 55f
11:06 18 28 mph 1013.9mb 62f 55f
11:00 16 25 mph 1013.8mb 62f 55f
10:54 21 25 mph 1013.8mb 62f 55f
10:48 18 28 mph 1013.8mb 61f 55f
10:42 20 29 mph 1013.8mb 61f 55f
10:36 21 28 mph 1013.7mb 61f 55f
10:30 20 25 mph 1013.7mb 61f 55f
10:24 17 21 mph 1013.7mb 61f 55f
10:18 13 21 mph 1013.7mb 61f 55f
10:12 13 24 mph 1013.7mb 61f 55f
10:06 18 24 mph 1013.6mb 61f 54f
10:00 15 22 mph 1013.7mb 61f 54f
9:54 17 24 mph 1013.7mb 61f 54f
9:48 16 23 mph 1013.6mb 61f 54f
9:42 18 23 mph 1013.6mb 61f 54f
9:36 16 24 mph 1013.6mb 61f 54f
9:30 16 26 mph 1013.5mb 61f 55f
9:24 17 30 mph 1013.4mb 61f 54f
9:18 20 28 mph 1013.2mb 61f 54f
9:12 21 28 mph 1013.1mb 61f 54f
9:06 20 30 mph 1013.1mb 62f 54f
9:00 15 29 mph 1013.1mb 62f 54f
8:54 24 32 mph 1013mb 62f 55f
8:48 18 31 mph 1012.9mb 62f 54f
8:42 24 32 mph 1012.8mb 62f 55f
8:36 23 32 mph 1012.7mb 62f 55f
8:30 22 31 mph 1012.9mb 62f 55f
8:24 21 30 mph 1012.9mb 62f 55f
8:18 25 34 mph 1012.8mb 62f 55f
8:12 24 33 mph 1012.7mb 62f 55f
8:06 24 33 mph 1012.8mb 62f 55f
8:00 15 20 mph 1012.9mb 62f 55f
7:54 15 26 mph 1013mb 62f 55f
7:48 16 22 mph 1013.1mb 62f 56f
7:42 16 25 mph 1013.1mb 62f 56f
7:36 16 25 mph 1013mb 62f 56f
7:30 20 28 mph 1012.9mb 62f 56f
7:24 22 25 mph 1012.6mb 62f 56f
7:18 17 22 mph 1012.8mb 62f 57f
7:12 17 21 mph 1013mb 62f 56f
7:06 15 21 mph 1013.2mb 62f 57f
7:00 14 17 mph 1013.3mb 62f 57f
6:54 13 17 mph 1013.3mb 62f 57f
6:48 10 15 mph 1013.5mb 62f 57f
6:42 9 14 mph 1013.4mb 62f 57f
6:36 9 14 mph 1013.3mb 62f 58f
6:30 7 9 mph 1013.2mb 62f 58f
6:24 6 14 mph 1013.1mb 62f 58f
6:18 13 18 mph 1013mb 62f 58f
6:12 14 21 mph 1012.9mb 62f 58f
6:06 9 17 mph 1012.8mb 62f 58f
6:00 15 20 mph 1012.7mb 62f 58f
5:54 15 21 mph 1012.7mb 62f 58f
5:48 14 21 mph 1012.5mb 62f 58f
5:42 16 18 mph 1012.4mb 62f 58f
5:36 15 20 mph 1012.3mb 62f 58f
5:30 15 22 mph 1012.2mb 62f 59f
5:24 15 24 mph 1012.1mb 62f 59f
5:18 17 23 mph 1012mb 62f 59f
5:12 20 23 mph 1012mb 62f 60f
5:06 17 24 mph 1012.1mb 62f 60f
5:00 18 24 mph 1011.9mb 62f 60f
4:54 20 25 mph 1011.8mb 62f 60f
4:48 22 29 mph 1011.6mb 62f 60f
4:42 20 30 mph 1011.4mb 62f 60f
4:36 18 29 mph 1011.3mb 62f 61f
4:30 20 30 mph 1011.2mb 62f 61f
4:24 20 26 mph 1011.3mb 62f 61f
4:18 17 23 mph 1011.4mb 62f 61f
4:12 14 21 mph 1011.4mb 62f 61f
4:06 16 25 mph 1011.4mb 62f 62f
4:00 16 22 mph 1011.4mb 62f 62f
3:54 15 23 mph 1011.4mb 62f 62f
3:48 14 29 mph 1011.4mb 62f 62f
3:42 22 25 mph 1011.3mb 62f 62f
3:36 20 24 mph 1011.4mb 62f 62f
3:30 17 25 mph 1011.3mb 62f 63f
3:24 21 26 mph 1011.3mb 62f 63f
3:18 21 26 mph 1011.2mb 62f 63f
3:12 14 20 mph 1011.2mb 62f 63f
3:06 11 17 mph 1011.1mb 62f 64f
3:00 9 18 mph 1011mb 62f 64f
2:54 14 21 mph 1011mb 62f 63f
2:48 13 20 mph 1011mb 62f 63f
2:42 11 20 mph 1011mb 62f 63f
2:36 17 24 mph 1011mb 62f 63f
2:30 14 22 mph 1011.1mb 62f 63f
2:24 11 17 mph 1011.1mb 62f 63f
2:18 10 20 mph 1011.1mb 62f 64f
2:06 11 16 mph 1011mb 62f 63f
2:00 14 21 mph 1011mb 62f 63f
1:54 14 21 mph 1010.9mb 62f 62f
1:48 16 21 mph 1011mb 62f 62f
1:42 16 26 mph 1011mb 62f 62f
1:36 15 24 mph 1010.9mb 62f 62f
1:30 20 26 mph 1010.9mb 62f 62f
1:24 15 28 mph 1011mb 62f 62f
1:18 16 21 mph 1011mb 62f 62f
1:12 14 22 mph 1011.2mb 62f 62f
1:00 17 24 mph 1011.2mb 62f 61f
12:54 16 24 mph 1011.3mb 62f 61f
12:42 15 23 mph 1011.3mb 62f 61f
12:36 17 25 mph 1011.4mb 62f 61f
12:30 18 30 mph 1011.4mb 62f 61f
12:24 20 28 mph 1011.4mb 62f 60f
12:18 21 30 mph 1011.4mb 62f 60f
12:12 24 30 mph 1011.3mb 62f 60f
12:06 16 24 mph 1011.4mb 62f 61f
12:00 17 28 mph 1011.5mb 62f 60f
11:54 13 26 mph 1011.8mb 62f 61f
11:48 18 29 mph 1011.8mb 62f 60f
11:42 20 26 mph 1011.9mb 62f 60f
11:36 11 22 mph 1012.1mb 62f 61f
11:30 15 25 mph 1012.3mb 62f 60f
11:24 17 25 mph 1012.3mb 62f 60f
11:18 15 26 mph 1012.4mb 62f 60f
11:12 20 24 mph 1012.5mb 62f 60f
11:06 17 25 mph 1012.7mb 62f 61f
11:00 16 29 mph 1012.8mb 62f 61f
10:54 21 28 mph 1012.8mb 62f 60f
10:48 11 22 mph 1013.1mb 62f 61f
10:42 18 31 mph 1013mb 62f 60f
10:36 21 30 mph 1012.8mb 62f 60f
10:30 23 29 mph 1012.8mb 62f 60f
10:24 23 34 mph 1012.7mb 62f 60f
10:18 18 32 mph 1012.7mb 62f 60f
10:12 22 29 mph 1012.8mb 62f 60f
10:06 21 28 mph 1013mb 62f 59f
10:00 21 28 mph 1013.1mb 62f 59f
9:54 23 29 mph 1013mb 62f 59f
9:48 21 30 mph 1012.6mb 62f 59f
9:42 23 33 mph 1012.4mb 62f 58f
9:36 21 29 mph 1012.3mb 62f 58f
9:30 21 30 mph 1012.3mb 62f 58f
9:24 16 22 mph 1012.4mb 62f 58f
9:18 22 30 mph 1012.5mb 62f 58f
9:12 25 36 mph 1012.6mb 62f 58f
9:06 22 33 mph 1012.4mb 62f 58f
9:00 20 30 mph 1012.3mb 62f 57f
8:48 24 34 mph 1012.1mb 62f 57f
8:42 21 31 mph 1012.1mb 62f 57f
8:36 17 32 mph 1011.8mb 62f 57f
8:30 18 30 mph 1011.6mb 62f 56f
8:24 20 33 mph 1011.3mb 62f 56f
8:18 15 26 mph 1011.3mb 62f 56f
8:12 16 26 mph 1011.3mb 62f 56f
8:06 17 26 mph 1011.2mb 62f 56f
8:00 11 20 mph 1011.2mb 62f 56f
7:54 15 26 mph 1011.3mb 62f 56f
7:48 16 23 mph 1011.3mb 62f 56f
7:42 20 26 mph 1011.1mb 62f 55f
7:36 17 29 mph 1011.1mb 62f 55f
7:30 18 25 mph 1010.9mb 62f 55f
7:24 18 28 mph 1010.9mb 62f 55f
7:18 21 28 mph 1010.8mb 62f 56f
7:12 17 26 mph 1010.7mb 62f 56f
7:06 18 28 mph 1010.7mb 62f 56f
7:00 16 23 mph 1010.7mb 62f 56f
6:54 20 28 mph 1010.6mb 62f 56f
6:48 16 22 mph 1010.6mb 62f 56f
6:42 20 29 mph 1010.5mb 62f 56f
6:36 15 24 mph 1010.4mb 62f 56f
6:30 16 25 mph 1010.4mb 62f 56f
6:24 14 20 mph 1010.4mb 62f 56f
6:18 13 22 mph 1010.4mb 62f 56f
6:12 14 23 mph 1010.3mb 62f 57f
6:06 14 17 mph 1010.1mb 62f 57f
6:00 14 28 mph 1010mb 62f 57f
5:54 16 31 mph 1009.8mb 62f 57f
5:48 18 32 mph 1009.7mb 62f 57f
5:42 22 34 mph 1009.7mb 62f 57f
5:36 22 32 mph 1009.5mb 62f 57f
5:30 26 36 mph 1009.4mb 62f 57f
5:24 21 28 mph 1009.4mb 62f 57f
5:18 18 25 mph 1009.3mb 62f 57f
5:12 22 31 mph 1009.1mb 62f 57f
5:06 24 34 mph 1009mb 63f 57f
5:00 26 40 mph 1009mb 62f 57f
4:54 24 36 mph 1008.9mb 62f 57f
4:48 26 39 mph 1009.1mb 62f 57f
4:42 28 41 mph 1009.1mb 62f 57f
4:36 26 37 mph 1008.9mb 63f 57f
4:30 28 40 mph 1008.9mb 63f 57f
4:24 26 39 mph 1008.8mb 63f 57f
4:12 21 29 mph 1008.9mb 63f 57f
4:06 18 30 mph 1008.9mb 63f 57f
4:00 18 32 mph 1008.9mb 63f 57f
3:54 22 37 mph 1008.8mb 63f 58f
3:48 17 28 mph 1008.8mb 63f 57f
3:42 20 29 mph 1008.9mb 63f 58f
3:36 11 29 mph 1009mb 63f 58f
3:30 20 26 mph 1009.1mb 63f 58f
3:24 20 28 mph 1009.1mb 63f 58f
3:18 23 32 mph 1009mb 63f 58f
3:12 25 33 mph 1008.9mb 63f 58f
3:06 28 39 mph 1008.9mb 63f 58f
2:54 17 29 mph 1009mb 63f 58f
2:48 17 23 mph 1008.9mb 63f 58f
2:42 18 24 mph 1008.8mb 63f 58f
2:36 17 23 mph 1008.8mb 63f 58f
2:30 20 25 mph 1008.8mb 63f 58f
2:24 15 24 mph 1009mb 63f 58f
2:18 21 28 mph 1009mb 63f 58f
2:12 17 32 mph 1009mb 63f 58f
2:06 17 26 mph 1009.3mb 63f 59f
2:00 18 31 mph 1009.2mb 63f 59f
1:54 13 20 mph 1009.2mb 63f 59f
1:48 14 20 mph 1009.3mb 63f 60f
1:42 13 22 mph 1009.4mb 63f 60f
1:36 15 21 mph 1009.4mb 63f 59f
1:30 10 17 mph 1009.6mb 63f 58f
1:24 11 17 mph 1009.5mb 63f 59f
1:18 13 16 mph 1009.6mb 63f 59f
1:12 9 14 mph 1009.5mb 63f 59f
1:06 9 10 mph 1009.5mb 63f 59f
1:00 8 9 mph 1009.3mb 63f 59f
12:54 6 7 mph 1009.1mb 63f 59f
12:48 7 9 mph 1009.3mb 63f 60f
12:42 7 8 mph 1009.3mb 63f 60f
12:36 6 7 mph 1009.3mb 63f 60f
12:30 7 9 mph 1009.3mb 63f 60f
12:24 7 8 mph 1009.3mb 63f 60f
12:18 7 8 mph 1009.4mb 63f 59f
12:12 7 9 mph 1009.6mb 63f 59f
12:06 7 11 mph 1009.6mb 63f 59f
12:00 10 11 mph 1009.7mb 63f 58f
mié 12/24 11:54 7 11 mph 1009.7mb 63f 60f
11:48 9 13 mph 1009.9mb 63f 59f
11:42 6 13 mph 1009.9mb 63f 59f
11:36 8 10 mph 1009.9mb 63f 59f
11:30 8 9 mph 1009.9mb 63f 59f
11:24 7 9 mph 1009.8mb 63f 59f
11:18 7 8 mph 1010mb 63f 59f
11:12 7 9 mph 1010.1mb 63f 59f
11:06 7 8 mph 1010.2mb 63f 59f
11:00 1 3 mph 1010.3mb 63f 59f
10:54 2 6 mph 1010.4mb 63f 59f
10:48 5 6 mph 1010.2mb 63f 59f
10:42 3 6 mph 1010.3mb 63f 60f
10:36 5 6 mph 1010.2mb 63f 59f
10:30 5 6 mph 1010.4mb 63f 59f
10:24 2 3 mph 1010.6mb 63f 61f
10:18 2 6 mph 1010.5mb 63f 61f
10:12 5 7 mph 1010.6mb 63f 61f
10:06 6 7 mph 1010.8mb 63f 61f
10:00 5 6 mph 1010.9mb 63f 61f
9:54 1 5 mph 1011.1mb 63f 61f
9:48 5 6 mph 1011.1mb 63f 61f
9:42 3 9 mph 1011.2mb 63f 61f
9:36 5 7 mph 1011.1mb 63f 61f
9:30  -  6 mph 1011.1mb 63f 61f
9:24 2 3 mph 1011.3mb 63f 61f
9:18 1 3 mph 1011.3mb 63f 59f
9:12 1 2 mph 1011.3mb 63f 61f
9:06 1 3 mph 1011.3mb 63f 60f
9:00 3 5 mph 1011.3mb 63f 60f
8:54 2 3 mph 1011.4mb 63f 60f
8:48 3 5 mph 1011.4mb 63f 60f
8:42 5 6 mph 1011.4mb 63f 60f
8:36 6 7 mph 1011.5mb 63f 60f
8:30 5 6 mph 1011.5mb 63f 59f
8:24 2 5 mph 1011.4mb 63f 60f
8:18 2 5 mph 1011.3mb 63f 60f
8:12 2 3 mph 1011.1mb 63f 61f
8:06  -  2 mph 1011.1mb 63f 61f
8:00  -  2 mph 1011.3mb 63f 62f
7:54 2
mph
1011.3mb 63f 63f
7:48 1 2 mph 1011.4mb 63f 63f
7:42 1 2 mph 1011.6mb 63f 63f
7:36 2
mph
1011.5mb 63f 63f
7:30  -  1 mph 1011.7mb 63f 63f
7:24 1 3 mph 1011.7mb 63f 63f
7:18 3
mph
1011.7mb 63f 63f
7:12 2 3 mph 1012mb 63f 63f
7:06 3 5 mph 1012.2mb 63f 64f
7:00 5 6 mph 1012.2mb 63f 64f
6:54 5 6 mph 1012.1mb 63f 64f
6:48 5
mph
1012.3mb 63f 64f
6:42 5
mph
1012.4mb 63f 64f
6:36 5 6 mph 1012.5mb 63f 64f
6:30 5
mph
1012.6mb 63f 64f
6:24 3
mph
1012.4mb 64f 64f
6:18 3 6 mph 1012.4mb 64f 64f
6:12 3 5 mph 1012.5mb 64f 64f
6:06 1 2 mph 1012.8mb 64f 64f
6:00 2
mph
1013.1mb 64f -
5:54  -  mph 1013.1mb 64f -
5:48  -  2 mph 1012.9mb 64f 64f
5:36  -  1 mph 1013.2mb 64f 64f
5:30  -  1 mph 1013.2mb 64f 64f
5:24  -  mph 1013.1mb 64f 64f
5:18  -  1 mph 1013mb 64f 64f
5:12 1 2 mph 1013.1mb 64f 64f
5:06 3
mph
1013.1mb 64f 64f
5:00 3
mph
1013.1mb 64f 64f
4:54 3
mph
1013.3mb 64f 64f
4:48 3
mph
1013.3mb 64f 64f
4:42 2
mph
1013.2mb 64f 65f
4:36 1
mph
1013.1mb 64f 65f
4:30  -  1 mph 1013.4mb 64f 65f
4:18  -  1 mph 1013.4mb 64f 66f
4:12  -  2 mph 1013.7mb 64f 66f
4:06 2 3 mph 1013.7mb 64f 66f
4:00 3 5 mph 1013.5mb 64f 66f
3:54 5 6 mph 1013.5mb 64f 65f
3:48 6
mph
1013.6mb 64f 65f
3:36 2
mph
1014.2mb 64f 70f
3:30 1 2 mph 1014.3mb 64f 70f
3:24  -  3 mph 1014.5mb 64f 69f
3:18 2 3 mph 1014.8mb 64f 68f
3:00 1 2 mph 1014.8mb 64f 67f
2:54  -  2 mph 1014.5mb 64f 68f
2:48 1 3 mph 1014.6mb 64f 67f
2:36 2 3 mph 1014.6mb 63f 66f
2:30 1 2 mph 1014.3mb 63f 66f
2:24 3 5 mph 1014.5mb 63f 66f
2:18 2 3 mph 1014.6mb 63f 66f
2:06 2 3 mph 1014.4mb 63f 66f
2:00 2 3 mph 1014.3mb 63f 66f
1:54 2
mph
1014.8mb 63f 66f
1:48 1 2 mph 1014.8mb 63f 67f
1:42 1 2 mph 1014.8mb 63f 66f
1:36 1 2 mph 1014.9mb 63f 66f
1:30 2 3 mph 1014.9mb 63f 66f
1:24 2
mph
1014.9mb 63f 67f
1:12 2 3 mph 1015.2mb 63f 69f
1:06 2 3 mph 1015.3mb 63f 69f
1:00 2 3 mph 1015.3mb 63f 69f
12:54 2 3 mph 1015.5mb 63f 68f
12:48 2 3 mph 1015.6mb 63f 68f
12:42 3
mph
1015.7mb 63f 67f
12:36 2
mph
1015.8mb 63f 67f
12:30  -  3 mph 1015.7mb 63f 68f
12:24 2 5 mph 1015.8mb 63f 66f
12:18 5 6 mph 1015.9mb 63f 66f
12:06 3 6 mph 1016mb 63f 67f
12:00 5 6 mph 1016.3mb 63f 67f
11:54 5 6 mph 1016.4mb 63f 67f